AB5KT-1 Weather Reports


Display with metric or nautical units.
time (UTC)temp
F
wind
direction
speed
MPH
gust
MPH
rain 1hr
in
rain 24hr
in
rain mn
in
humidity
%
barometer
mb
20260903035634 88 82 3.0 8.0 0.00 0.00 0.00 61 1013.6
20260903035134 88 110 1.0 7.0 0.00 0.00 0.00 60 1013.6
20260903034638 88 131 3.0 8.0 0.00 0.00 0.00 59 1013.3
20260903034634 88 144 2.0 8.0 0.00 0.00 0.00 60 1013.4
20260903033632 88 148 3.0 9.0 0.00 0.00 0.00 59 1013.3
20260903033132 89 45 2.0 9.0 0.00 0.00 0.00 58 1013.2
20260903032632 89 126 3.0 9.0 0.00 0.00 0.00 57 1013.0
20260903032132 89 129 3.0 9.0 0.00 0.00 0.00 57 1013.0
20260903031632 89 138 3.0 9.0 0.00 0.00 0.00 56 1012.9
20260903031130 89 128 3.0 10.0 0.00 0.00 0.00 55 1012.9
20260903030628 90 95 2.0 11.0 0.00 0.00 0.00 52 1012.9
20260903030128 90 107 1.0 11.0 0.00 0.00 0.00 49 1012.7
20260903025629 90 134 0.0 2.0 0.00 0.00 0.00 47 1012.5
20260903025128 90 133 0.0 1.0 0.00 0.00 0.00 47 1012.4
20260903024628 90 133 0.0 1.0 0.00 0.00 0.00 46 1012.4
20260903024129 90 133 0.0 1.0 0.00 0.00 0.00 47 1012.4
20260903023628 90 134 0.0 1.0 0.00 0.00 0.00 46 1012.3
20260903023128 90 133 0.0 1.0 0.00 0.00 0.00 46 1012.2
20260903022628 91 133 0.0 1.0 0.00 0.00 0.00 45 1012.2
20260903022132 91 133 0.0 1.0 0.00 0.00 0.00 44 1012.2
20260903022128 91 134 0.0 1.0 0.00 0.00 0.00 44 1012.2
20260903021129 91 133 0.0 1.0 0.00 0.00 0.00 43 1012.1
20260903020628 91 134 0.0 1.0 0.00 0.00 0.00 43 1012.0
20260903020132 92 134 0.0 1.0 0.00 0.00 0.00 42 1011.8
20260903020128 92 134 0.0 1.0 0.00 0.00 0.00 43 1012.0
20260903015128 92 134 0.0 1.0 0.00 0.00 0.00 41 1011.8
20260903014629 93 134 0.0 2.0 0.00 0.00 0.00 41 1011.6
20260903014126 93 134 0.0 2.0 0.00 0.00 0.00 40 1011.6
20260903013627 93 134 0.0 1.0 0.00 0.00 0.00 40 1011.6
20260903013126 94 134 0.0 1.0 0.00 0.00 0.00 40 1011.5
20260903012624 94 134 0.0 1.0 0.00 0.00 0.00 39 1011.5
20260903012125 94 134 0.0 1.0 0.00 0.00 0.00 39 1011.5
20260903011622 95 134 0.0 2.0 0.00 0.00 0.00 38 1011.5
20260903011123 95 133 0.0 2.0 0.00 0.00 0.00 38 1011.4
20260903010623 96 144 0.0 2.0 0.00 0.00 0.00 37 1011.4
20260903010127 96 141 0.0 4.0 0.00 0.00 0.00 36 1011.4
20260903010123 96 129 0.0 2.0 0.00 0.00 0.00 37 1011.4
20260903005124 97 141 1.0 4.0 0.00 0.00 0.00 36 1011.4
20260903004621 98 161 1.0 4.0 0.00 0.00 0.00 35 1011.4
20260903004123 99 154 1.0 5.0 0.00 0.00 0.00 35 1011.4
20260903004119 98 180 1.0 4.0 0.00 0.00 0.00 35 1011.4
20260903003119 99 150 2.0 5.0 0.00 0.00 0.00 34 1011.4
20260903002618 99 150 1.0 5.0 0.00 0.00 0.00 34 1011.5
20260903002118 99 156 1.0 4.0 0.00 0.00 0.00 35 1011.5
20260903001621 99 151 2.0 5.0 0.00 0.00 0.00 35 1011.5
20260903001119 99 159 3.0 7.0 0.00 0.00 0.00 35 1011.6
20260903000618 100 162 3.0 7.0 0.00 0.00 0.00 34 1011.5
20260903000118 100 168 1.0 7.0 0.00 0.00 0.00 33 1011.6
20260902235619 101 145 2.0 6.0 0.00 0.00 0.00 33 1011.6
20260902235118 101 230 2.0 6.0 0.00 0.00 0.00 32 1011.6
20260902234619 101 121 2.0 6.0 0.00 0.00 0.00 32 1011.6
20260902234118 101 194 4.0 7.0 0.00 0.00 0.00 32 1011.7
20260902233619 101 221 4.0 8.0 0.00 0.00 0.00 32 1011.7
20260902233119 102 166 3.0 8.0 0.00 0.00 0.00 32 1011.7
20260902232618 103 144 2.0 8.0 0.00 0.00 0.00 31 1011.8
20260902232118 103 142 1.0 6.0 0.00 0.00 0.00 31 1011.8
20260902231619 103 115 1.0 6.0 0.00 0.00 0.00 32 1011.7
20260902231118 103 130 1.0 6.0 0.00 0.00 0.00 32 1011.7
20260902230618 102 150 2.0 6.0 0.00 0.00 0.00 32 1011.8
20260902230119 103 145 1.0 6.0 0.00 0.00 0.00 31 1011.8
20260902225623 103 114 2.0 10.0 0.00 0.00 0.00 31 1011.8
20260902225619 103 151 1.0 5.0 0.00 0.00 0.00 31 1011.8
20260902225223 104 128 2.0 10.0 0.00 0.00 0.00 31 1011.8
20260902224118 103 115 1.0 7.0 0.00 0.00 0.00 31 1011.8
20260902223617 103 131 1.0 7.0 0.00 0.00 0.00 31 1011.8
20260902223117 104 119 1.0 7.0 0.00 0.00 0.00 30 1012.0
20260902222616 104 111 1.0 6.0 0.00 0.00 0.00 33 1012.0
20260902222116 103 109 1.0 5.0 0.00 0.00 0.00 31 1012.0
20260902221617 103 164 1.0 12.0 0.00 0.00 0.00 32 1012.1
20260902221121 102 44 2.0 8.0 0.00 0.00 0.00 32 1012.1
20260902221116 102 126 1.0 12.0 0.00 0.00 0.00 32 1012.1
20260902220117 101 346 4.0 10.0 0.00 0.00 0.00 32 1012.2
20260902215617 102 73 3.0 10.0 0.00 0.00 0.00 31 1012.2
20260902215120 102 122 4.0 11.0 0.00 0.00 0.00 34 1012.3
20260902215116 102 109 3.0 9.0 0.00 0.00 0.00 33 1012.3
20260902214116 102 45 3.0 11.0 0.00 0.00 0.00 32 1012.3
20260902213616 103 119 2.0 6.0 0.00 0.00 0.00 33 1012.3
20260902213117 103 98 4.0 10.0 0.00 0.00 0.00 35 1012.4
20260902212615 102 109 3.0 10.0 0.00 0.00 0.00 35 1012.3
20260902212114 103 193 1.0 8.0 0.00 0.00 0.00 34 1012.4
20260902211617 102 129 1.0 6.0 0.00 0.00 0.00 34 1012.5
20260902211613 103 118 1.0 6.0 0.00 0.00 0.00 35 1012.4
20260902210612 102 217 2.0 10.0 0.00 0.00 0.00 33 1012.6
20260902210112 103 130 2.0 10.0 0.00 0.00 0.00 34 1012.6
20260902205613 101 112 3.0 7.0 0.00 0.00 0.00 35 1012.7
20260902205112 102 169 3.0 8.0 0.00 0.00 0.00 35 1012.8
20260902204610 101 135 3.0 8.0 0.00 0.00 0.00 34 1012.9
20260902204111 101 171 3.0 8.0 0.00 0.00 0.00 36 1012.9
20260902203609 102 113 2.0 8.0 0.00 0.00 0.00 34 1013.0
20260902203108 102 126 2.0 9.0 0.00 0.00 0.00 34 1013.0
20260902202606 101 121 2.0 9.0 0.00 0.00 0.00 34 1013.2
20260902202111 103 126 1.0 5.0 0.00 0.00 0.00 35 1013.3
20260902202107 102 185 1.0 8.0 0.00 0.00 0.00 34 1013.3
20260902201106 102 134 2.0 6.0 0.00 0.00 0.00 36 1013.4
20260902200607 101 128 2.0 6.0 0.00 0.00 0.00 38 1013.5
20260902200208 100 164 2.0 8.0 0.00 0.00 0.00 39 1013.7
20260902200108 100 179 3.0 8.0 0.00 0.00 0.00 39 1013.8
20260902200104 100 125 1.0 7.0 0.00 0.00 0.00 38 1013.6
20260902194600 100 83 2.0 6.0 0.00 0.00 0.00 36 1013.8
20260902194103 101 244 2.0 8.0 0.00 0.00 0.00 38 1014.1
20260902194059 100 91 2.0 8.0 0.00 0.00 0.00 39 1014.0
20260902193058 100 142 2.0 7.0 0.00 0.00 0.00 39 1014.1
20260902192559 100 164 2.0 7.0 0.00 0.00 0.00 40 1014.1
20260902192059 99 166 2.0 7.0 0.00 0.00 0.00 41 1014.2
20260902191558 99 112 1.0 5.0 0.00 0.00 0.00 44 1014.3
20260902191059 98 128 2.0 7.0 0.00 0.00 0.00 45 1014.4
20260902190557 98 204 3.0 7.0 0.00 0.00 0.00 44 1014.5
20260902190054 98 167 3.0 7.0 0.00 0.00 0.00 43 1014.6
20260902185555 98 123 2.0 7.0 0.00 0.00 0.00 44 1014.6
20260902185059 98 232 3.0 8.0 0.00 0.00 0.00 45 1014.8
20260902185055 98 115 2.0 7.0 0.00 0.00 0.00 44 1014.7
20260902184054 99 217 2.0 8.0 0.00 0.00 0.00 45 1014.9
20260902183555 98 65 2.0 7.0 0.00 0.00 0.00 46 1015.0
20260902183055 98 94 2.0 6.0 0.00 0.00 0.00 46 1015.0
20260902182558 97 111 2.0 6.0 0.00 0.00 0.00 47 1015.4
20260902182554 97 123 2.0 6.0 0.00 0.00 0.00 47 1015.2
20260902181557 95 126 2.0 9.0 0.00 0.00 0.00 50 1015.6
20260902181553 96 124 2.0 9.0 0.00 0.00 0.00 49 1015.4
20260902180549 95 138 2.0 6.0 0.00 0.00 0.00 52 1015.6
20260902180049 94 215 3.0 7.0 0.00 0.00 0.00 51 1015.8
20260902175548 94 61 3.0 7.0 0.00 0.00 0.00 52 1015.9
20260902175049 94 161 4.0 7.0 0.00 0.00 0.00 52 1015.9
20260902174549 95 182 3.0 7.0 0.00 0.00 0.00 52 1016.0
20260902174048 95 117 2.0 6.0 0.00 0.00 0.00 53 1016.1
20260902173549 94 100 2.0 6.0 0.00 0.00 0.00 54 1016.2
20260902173049 93 226 2.0 7.0 0.00 0.00 0.00 55 1016.1
20260902172549 92 113 3.0 8.0 0.00 0.00 0.00 56 1016.2
20260902172048 92 180 3.0 8.0 0.00 0.00 0.00 54 1016.3
20260902171549 92 187 2.0 8.0 0.00 0.00 0.00 56 1016.3
20260902171049 92 227 2.0 8.0 0.00 0.00 0.00 57 1016.4
20260902170548 91 190 2.0 8.0 0.00 0.00 0.00 58 1016.5
20260902170049 91 194 2.0 8.0 0.00 0.00 0.00 59 1016.5
20260902165549 90 213 2.0 8.0 0.00 0.00 0.00 61 1016.6
20260902165048 90 213 3.0 9.0 0.00 0.00 0.00 59 1016.6
20260902164553 90 176 2.0 8.0 0.00 0.00 0.00 62 1016.6
20260902164549 90 251 2.0 9.0 0.00 0.00 0.00 60 1016.6
20260902163547 89 129 2.0 8.0 0.00 0.00 0.00 61 1016.7
20260902163047 89 137 2.0 7.0 0.00 0.00 0.00 62 1016.7
20260902162551 89 189 3.0 9.0 0.00 0.00 0.00 64 1016.7
20260902162547 89 202 2.0 9.0 0.00 0.00 0.00 62 1016.7
20260902161549 88 207 2.0 7.0 0.00 0.00 0.00 65 1016.7
20260902161545 88 220 3.0 7.0 0.00 0.00 0.00 64 1016.8
20260902160547 88 184 1.0 6.0 0.00 0.00 0.00 68 1016.7
20260902160543 88 143 1.0 7.0 0.00 0.00 0.00 67 1016.7
20260902155542 87 200 2.0 8.0 0.00 0.00 0.00 69 1016.7
20260902155042 86 134 3.0 8.0 0.00 0.00 0.00 70 1016.7
20260902154543 86 186 1.0 7.0 0.00 0.00 0.00 71 1016.8
20260902154043 86 213 1.0 6.0 0.00 0.00 0.00 71 1016.7
20260902153543 85 125 3.0 7.0 0.00 0.00 0.00 72 1016.8
20260902153046 85 186 3.0 7.0 0.00 0.00 0.00 72 1016.8
20260902153042 85 147 3.0 9.0 0.00 0.00 0.00 73 1016.8
20260902152041 84 236 3.0 9.0 0.00 0.00 0.00 73 1016.8
20260902151541 84 186 4.0 8.0 0.00 0.00 0.00 74 1016.8
20260902151039 84 176 3.0 8.0 0.00 0.00 0.00 75 1016.9
20260902150537 83 121 4.0 8.0 0.00 0.00 0.00 76 1016.8
20260902150035 83 179 4.0 8.0 0.00 0.00 0.00 75 1016.9
20260902145534 83 166 3.0 7.0 0.00 0.00 0.00 75 1016.9
20260902145035 83 200 2.0 7.0 0.00 0.00 0.00 75 1017.0
20260902144535 83 155 1.0 5.0 0.00 0.00 0.00 76 1017.0
20260902144032 83 159 2.0 5.0 0.00 0.00 0.00 76 1017.0
20260902143533 83 175 2.0 5.0 0.00 0.00 0.00 76 1017.0
20260902143031 83 170 1.0 5.0 0.00 0.00 0.00 77 1016.9
20260902142530 83 140 1.0 5.0 0.00 0.00 0.00 77 1016.9
20260902142035 83 159 0.0 1.0 0.00 0.00 0.00 78 1016.9
20260902142031 83 141 1.0 5.0 0.00 0.00 0.00 77 1017.0
20260902141635 82 159 0.0 3.0 0.00 0.00 0.00 79 1017.0
20260902140535 81 162 1.0 4.0 0.00 0.00 0.00 80 1017.0
20260902140531 81 159 1.0 3.0 0.00 0.00 0.00 80 1017.0
20260902135530 81 162 1.0 4.0 0.00 0.00 0.00 80 1016.9
20260902135031 81 121 0.0 2.0 0.00 0.00 0.00 80 1016.8
20260902134531 81 153 0.0 1.0 0.00 0.00 0.00 81 1016.8
20260902134028 80 153 0.0 1.0 0.00 0.00 0.00 81 1016.8
20260902133529 80 153 0.0 1.0 0.00 0.00 0.00 81 1016.8
20260902133026 80 130 0.0 1.0 0.00 0.00 0.00 81 1016.7
20260902132526 80 130 0.0 1.0 0.00 0.00 0.00 82 1016.8
20260902132025 79 130 0.0 1.0 0.00 0.00 0.00 84 1016.7
20260902131525 78 130 0.0 1.0 0.00 0.00 0.00 85 1016.7
20260902131025 78 130 0.0 1.0 0.00 0.00 0.00 86 1016.6
20260902130529 77 130 0.0 1.0 0.00 0.00 0.00 86 1016.5
20260902130525 77 130 0.0 1.0 0.00 0.00 0.00 86 1016.6
20260902125524 76 130 0.0 1.0 0.00 0.00 0.00 86 1016.4
20260902125022 76 130 0.0 0.0 0.00 0.00 0.00 86 1016.4
20260902124523 76 130 0.0 0.0 0.00 0.00 0.00 86 1016.4
20260902124023 76 130 0.0 0.0 0.00 0.00 0.00 85 1016.4
20260902123521 76 130 0.0 0.0 0.00 0.00 0.00 85 1016.3
20260902123025 76 130 0.0 1.0 0.00 0.00 0.00 85 1016.2
20260902123021 76 130 0.0 0.0 0.00 0.00 0.00 85 1016.3
20260902122025 76 130 0.0 0.0 0.00 0.00 0.00 85 1016.1
20260902122021 76 130 0.0 1.0 0.00 0.00 0.00 85 1016.1
20260902121019 76 130 0.0 0.0 0.00 0.00 0.00 85 1016.0
20260902120516 76 130 0.0 1.0 0.00 0.00 0.00 85 1016.0
20260902120017 76 130 0.0 1.0 0.00 0.00 0.00 85 1016.0
20260902115517 76 130 0.0 0.0 0.00 0.00 0.00 84 1016.0
20260902115017 76 130 0.0 0.0 0.00 0.00 0.00 84 1016.0
20260902114517 77 130 0.0 0.0 0.00 0.00 0.00 84 1016.1
20260902114017 77 130 0.0 0.0 0.00 0.00 0.00 83 1016.0
20260902113521 77 130 0.0 0.0 0.00 0.00 0.00 83 1016.0
20260902113517 77 130 0.0 0.0 0.00 0.00 0.00 83 1016.0
20260902112515 77 130 0.0 1.0 0.00 0.00 0.00 83 1015.9
20260902112015 77 130 0.0 1.0 0.00 0.00 0.00 83 1015.9
20260902111515 77 130 0.0 1.0 0.00 0.00 0.00 83 1016.0
20260902111014 77 129 0.0 1.0 0.00 0.00 0.00 83 1016.0
20260902110509 77 129 0.0 1.0 0.00 0.00 0.00 83 1016.0
20260902110009 77 129 0.0 1.0 0.00 0.00 0.00 83 1015.9
20260902105509 77 129 0.0 1.0 0.00 0.00 0.00 83 1016.0
20260902105013 77 129 0.0 1.0 0.00 0.00 0.00 82 1015.9
20260902105009 77 129 0.0 0.0 0.00 0.00 0.00 82 1015.9
20260902104009 77 129 0.0 1.0 0.00 0.00 0.00 82 1015.9
20260902103513 77 129 0.0 1.0 0.00 0.00 0.00 81 1015.9
20260902103509 77 129 0.0 1.0 0.00 0.00 0.00 82 1015.9
20260902102508 77 129 0.0 1.0 0.00 0.00 0.00 81 1015.8
20260902102007 77 129 0.0 1.0 0.00 0.00 0.00 81 1015.9
20260902101612 77 129 0.0 1.0 0.00 0.00 0.00 80 1016.0
20260902101511 77 129 0.0 1.0 0.00 0.00 0.00 80 1015.9
20260902101507 77 129 0.0 1.0 0.00 0.00 0.00 81 1015.9
20260902100007 77 142 0.0 1.0 0.00 0.00 0.00 80 1015.9
20260902095507 77 143 0.0 1.0 0.00 0.00 0.00 79 1015.9
20260902095007 77 143 0.0 1.0 0.00 0.00 0.00 79 1016.0
20260902094507 77 143 0.0 1.0 0.00 0.00 0.00 79 1015.9
20260902094006 78 143 0.0 2.0 0.00 0.00 0.00 79 1015.9
20260902093506 78 117 0.0 2.0 0.00 0.00 0.00 79 1016.0
20260902093005 77 127 0.0 2.0 0.00 0.00 0.00 79 1016.0
20260902092505 77 118 0.0 1.0 0.00 0.00 0.00 78 1016.0
20260902092003 78 118 0.0 1.0 0.00 0.00 0.00 78 1016.1
20260902091503 78 118 0.0 1.0 0.00 0.00 0.00 78 1016.0
20260902091003 78 118 0.0 1.0 0.00 0.00 0.00 78 1016.1
20260902090507 78 118 0.0 0.0 0.00 0.00 0.00 77 1016.0
20260902090503 78 118 0.0 0.0 0.00 0.00 0.00 77 1016.0
20260902090107 78 118 0.0 1.0 0.00 0.00 0.00 77 1016.1
20260902085003 78 118 0.0 1.0 0.00 0.00 0.00 77 1016.1
20260902084507 78 118 0.0 1.0 0.00 0.00 0.00 76 1016.0
20260902084503 78 118 0.0 1.0 0.00 0.00 0.00 77 1016.2
20260902083501 79 118 0.0 2.0 0.00 0.00 0.00 76 1016.1
20260902083001 79 118 0.0 2.0 0.00 0.00 0.00 76 1016.0
20260902082501 79 118 0.0 2.0 0.00 0.00 0.00 76 1016.0
20260902082005 79 118 0.0 1.0 0.00 0.00 0.00 75 1016.1
20260902082001 79 118 0.0 1.0 0.00 0.00 0.00 75 1016.0
20260902081001 79 118 0.0 1.0 0.00 0.00 0.00 75 1016.1
20260902080501 79 118 0.0 1.0 0.00 0.00 0.00 75 1016.1
20260902080002 79 118 0.0 1.0 0.00 0.00 0.00 74 1016.2
20260902075501 79 118 0.0 0.0 0.00 0.00 0.00 74 1016.2
20260902075001 80 118 0.0 1.0 0.00 0.00 0.00 74 1016.3
20260902074503 80 118 0.0 1.0 0.00 0.00 0.00 73 1016.2
20260902074459 80 118 0.0 1.0 0.00 0.00 0.00 73 1016.3
20260902073459 80 119 0.0 1.0 0.00 0.00 0.00 73 1016.2
20260902073455 80 119 0.0 1.0 0.00 0.00 0.00 73 1016.2
20260902072453 80 119 0.0 1.0 0.00 0.00 0.00 72 1016.2
20260902071954 80 119 0.0 1.0 0.00 0.00 0.00 71 1016.2
20260902071453 80 119 0.0 1.0 0.00 0.00 0.00 71 1016.2
20260902070953 80 119 0.0 2.0 0.00 0.00 0.00 71 1016.2
20260902070949 80 119 0.0 2.0 0.00 0.00 0.00 70 1016.2
20260902065947 81 119 0.0 4.0 0.00 0.00 0.00 70 1016.2
20260902065447 81 119 0.0 4.0 0.00 0.00 0.00 69 1016.2
20260902064947 81 120 0.0 2.0 0.00 0.00 0.00 69 1016.2
20260902064447 81 120 1.0 3.0 0.00 0.00 0.00 68 1016.1
20260902063947 81 119 1.0 4.0 0.00 0.00 0.00 68 1016.0
20260902063446 82 116 0.0 3.0 0.00 0.00 0.00 67 1016.0
20260902062946 82 123 1.0 2.0 0.00 0.00 0.00 67 1016.0
20260902062445 82 125 1.0 3.0 0.00 0.00 0.00 66 1016.0
20260902061948 82 128 1.0 4.0 0.00 0.00 0.00 65 1015.9
20260902061449 83 156 1.0 7.0 0.00 0.00 0.00 64 1015.9
20260902061445 82 130 1.0 5.0 0.00 0.00 0.00 65 1015.8
20260902060445 83 162 1.0 7.0 0.00 0.00 0.00 64 1015.9
20260902055945 83 111 1.0 2.0 0.00 0.00 0.00 62 1015.8
20260902055445 83 117 1.0 5.0 0.00 0.00 0.00 62 1015.9
20260902054945 83 116 1.0 5.0 0.00 0.00 0.00 61 1015.9
20260902054443 84 142 1.0 5.0 0.00 0.00 0.00 61 1015.8
20260902053947 84 145 1.0 8.0 0.00 0.00 0.00 60 1015.7
20260902053943 84 110 1.0 6.0 0.00 0.00 0.00 60 1015.8
20260902052943 84 122 1.0 8.0 0.00 0.00 0.00 60 1015.7
20260902052441 84 167 1.0 5.0 0.00 0.00 0.00 60 1015.8
20260902051941 84 123 1.0 5.0 0.00 0.00 0.00 60 1015.7
20260902051439 85 135 1.0 4.0 0.00 0.00 0.00 60 1015.7
20260902050939 85 129 1.0 6.0 0.00 0.00 0.00 60 1015.7
20260902050437 85 179 2.0 6.0 0.00 0.00 0.00 59 1015.7
20260902045935 85 108 2.0 6.0 0.00 0.00 0.00 59 1015.6
20260902045434 85 124 2.0 7.0 0.00 0.00 0.00 59 1015.5
20260902044934 86 133 1.0 7.0 0.00 0.00 0.00 59 1015.5
20260902044435 86 111 1.0 5.0 0.00 0.00 0.00 59 1015.4
20260902043938 86 121 2.0 6.0 0.00 0.00 0.00 59 1015.5
20260902043934 86 105 2.0 6.0 0.00 0.00 0.00 59 1015.5
20260902042935 86 132 2.0 6.0 0.00 0.00 0.00 59 1015.5
20260902042435 86 91 1.0 7.0 0.00 0.00 0.00 59 1015.5
20260902041934 87 109 1.0 7.0 0.00 0.00 0.00 59 1015.5
20260902041434 87 76 2.0 8.0 0.00 0.00 0.00 59 1015.4
20260902040935 87 78 3.0 8.0 0.00 0.00 0.00 58 1015.4
20260902040438 87 91 3.0 12.0 0.00 0.00 0.00 57 1015.2
20260902040434 87 80 3.0 8.0 0.00 0.00 0.00 58 1015.2